Tracking 31027 objects as of 19-Jul-2025
HD Live streaming from Space Station
objects crossing your sky now

CZ-4C DEB

Track CZ-4C DEB now!
10-day predictions


NORAD ID: 39015
Int'l Code: 2012-066E
Perigee: 788.1 km
Apogee: 1,408.4 km
Inclination: 63.4 °
Period: 107.1 minutes
Semi major axis: 7469 km
RCS: 6.3394 m2 (large)
Launch date: November 25, 2012
Source: People's Republic of China (PRC)
Launch site: Jiuquan Satellite Launch Center, China (JSC)

Note: This is SATELLITE DEBRIS
Your satellite tracking list
STARLINK-1578
Track 1 satellite(s)




NASA's NSSDC Master Catalog

Two Line Element Set (TLE):
1 39015U 12066E   25199.66509207  .00000071  00000-0  16408-3 0  9994
2 39015  63.3582  91.9273 0415275  25.1802 336.8851 13.44893172620767
Source of the keplerian elements: AFSPC